This is the latest recevied weather packets stored in our database for station/object SQ9RHX-13. If no packets are shown the sender has not sent any weather packets the latest 10 day(s).
| Time | Temp. | Humidity | Pressure | Rain* | Wind** | Luminosity | Snow |
|---|---|---|---|---|---|---|---|
| 1777568403 | 15.56° C | 39% | 1032.3 hPa | 0 mm | - | 43 W/m² | - |
| 1777568103 | 15.56° C | 37% | 1032.4 hPa | 0 mm | - | 47 W/m² | - |
| 1777567803 | 15.56° C | 37% | 1032.6 hPa | 0 mm | - | 52 W/m² | - |
| 1777567505 | 16.11° C | 37% | 1032.3 hPa | 0 mm | - | 56 W/m² | - |
| 1777567205 | 16.11° C | 37% | 1032.3 hPa | 0 mm | - | 61 W/m² | - |
| 1777566904 | 16.11° C | 37% | 1032.4 hPa | 0 mm | - | 66 W/m² | - |
| 1777566603 | 16.11° C | 36% | 1032.3 hPa | 0 mm | - | 48 W/m² | - |
| 1777566304 | 15.56° C | 37% | 1032.3 hPa | 0 mm | - | 64 W/m² | - |
| 1777566003 | 16.11° C | 37% | 1032.4 hPa | 0 mm | - | 85 W/m² | - |
| 1777565705 | 16.11° C | 37% | 1032.3 hPa | 0 mm | - | 57 W/m² | - |
| 1777565402 | 16.11° C | 36% | 1032.5 hPa | 0 mm | - | 97 W/m² | - |
| 1777565105 | 16.11° C | 37% | 1032.4 hPa | 0 mm | - | 106 W/m² | - |
| 1777564804 | 16.11° C | 37% | 1032.3 hPa | 0 mm | - | 115 W/m² | - |
| 1777564506 | 15.56° C | 38% | 1032.5 hPa | 0 mm | - | 123 W/m² | - |
| 1777564204 | 16.11° C | 37% | 1032.2 hPa | 0 mm | - | 106 W/m² | - |
| 1777563903 | 16.11° C | 36% | 1032.5 hPa | 0 mm | - | 142 W/m² | - |
| 1777563603 | 16.11° C | 36% | 1032.2 hPa | 0 mm | - | 155 W/m² | - |
| 1777563305 | 16.11° C | 36% | 1032.6 hPa | 0 mm | - | 163 W/m² | - |
| 1777563004 | 16.11° C | 36% | 1032.5 hPa | 0 mm | - | 174 W/m² | - |
| 1777562703 | 16.67° C | 36% | 1032.6 hPa | 0 mm | - | 183 W/m² | - |
| 1777562403 | 16.67° C | 35% | 1032.5 hPa | 0 mm | - | 195 W/m² | - |
| 1777562105 | 16.67° C | 35% | 1032.5 hPa | 0 mm | - | 207 W/m² | - |
| 1777561802 | 16.11° C | 34% | 1032.6 hPa | 0 mm | - | 216 W/m² | - |
| 1777561503 | 16.11° C | 35% | 1032.5 hPa | 0 mm | - | 233 W/m² | - |
| 1777561204 | 16.11° C | 35% | 1032.6 hPa | 0 mm | - | 246 W/m² | - |
* Rain latest hour (hover to see other rain measurements)
** Current wind speed in m/s (hover to see current wind gust speed)